Weather History for Goderich, ON

Change the Weather History Date:

Saturday, November 3, 2012

  Actual Average Record
Temperature  
Mean Temperature 36 °F -  
Max Temperature 39 °F - - ()
Min Temperature 33 °F - - ()
Degree Days  
Heating Degree Days 29    
Moisture  
Dew Point 31 °F    
Average Humidity 83    
Maximum Humidity 98    
Minimum Humidity 61    
Precipitation  
Precipitation 0.02 in - - ()
Sea Level Pressure  
Sea Level Pressure 30.10 in    
Wind  
Wind Speed 8 mph ()    
Max Wind Speed 15 mph    
Max Gust Speed 20 mph    
T = Trace of Precipitation, MM = Missing Value Source: Averaged Metar Reports

Daily Weather History Graph

Daily Weather History Graph

Search for Another Location

Airport:

Trip Planner

Search our weather history database for the weather conditions in past years. The results will help you decide how hot, cold, wet, or windy it might be!

Date:

Astronomy

Nov. 03, 2012 Rise Set
Actual Time 8:06 AM EDT 6:14 PM EDT
Civil Twilight 7:35 AM EDT 6:44 PM EDT
Nautical Twilight 7:01 AM EDT 7:18 PM EDT
Astronomical Twilight 6:28 AM EDT 7:51 PM EDT
Moon 9:50 PM EDT (11/3) 12:12 PM EDT (11/3)
Length of Visible Light 11h 08m
Length of Day
10h 08m
Waning Gibbous, 80% of the Moon is Illuminated
Nov 3
Waning Gibbous
Nov 6
Last Quarter
Nov 13
New
Nov 20
First Quarter
Nov 28
Full

Hourly Weather History & Observations

Time (EDT) Temp. Windchill Dew Point Humidity Pressure Visibility Wind Dir Wind Speed Gust Speed Precip Events Conditions
12:00 AM 35.6 °F 29.2 °F 31.3 °F 84% 30.00 in - North 8.1 mph - 0.02 in   Unknown
1:00 AM 35.8 °F 28.3 °F 31.3 °F 84% 30.01 in - North 10.4 mph - N/A   Unknown
2:00 AM 35 °F - 31 °F 80% 30.01 in - NNE 9.2 mph - -  
2:00 AM 34.7 °F 27.5 °F 31.1 °F 87% 30.01 in - NNE 9.2 mph - N/A   Unknown
3:00 AM 34.2 °F 29.0 °F 33.6 °F 98% 30.03 in - North 5.8 mph - N/A   Unknown
4:00 AM 34.0 °F 28.0 °F 31.5 °F 90% 30.04 in - North 6.9 mph - N/A   Unknown
5:00 AM 34.7 °F 28.1 °F 31.8 °F 89% 30.04 in - North 8.1 mph - 0.02 in   Unknown
6:00 AM 34.2 °F 26.8 °F 30.9 °F 88% 30.06 in - North 9.2 mph - N/A   Unknown
7:00 AM 34.0 °F 27.2 °F 31.6 °F 91% 30.08 in - North 8.1 mph - N/A   Unknown
8:00 AM 34 °F - - % 30.09 in - NNE 8.1 mph - -  
8:00 AM 34.0 °F 27.2 °F - N/A% 30.09 in - NNE 8.1 mph - N/A   Unknown
9:00 AM 35.1 °F 27.4 °F 33.8 °F 95% 30.11 in - North 10.4 mph - N/A   Unknown
10:00 AM 35.4 °F 27.8 °F 31.6 °F 86% 30.12 in - NNE 10.4 mph - N/A   Unknown
11:00 AM 36.9 °F 28.7 °F 31.8 °F 82% 30.12 in - North 12.7 mph 19.6 mph N/A   Unknown
12:00 PM 39.0 °F 31.8 °F 33.6 °F 81% 30.14 in - North 11.5 mph - N/A   Unknown
1:00 PM 39.2 °F 31.6 °F 31.6 °F 74% 30.13 in - North 12.7 mph 18.4 mph N/A   Unknown
2:00 PM 38 °F - 29 °F 61% 30.13 in - North 12.7 mph - -  
2:00 PM 38.3 °F 30.5 °F 29.3 °F 70% 30.13 in - North 12.7 mph 19.6 mph N/A   Unknown
3:00 PM 37.4 °F 28.5 °F 29.7 °F 74% 30.13 in - NNW 15.0 mph - N/A   Unknown
4:00 PM 36.1 °F 27.7 °F 29.5 °F 77% 30.14 in - North 12.7 mph 18.4 mph N/A   Unknown
5:00 PM 35.4 °F 28.4 °F 31.3 °F 85% 30.14 in - North 9.2 mph - N/A   Unknown
6:00 PM 33.4 °F 25.9 °F 30.4 °F 89% 30.14 in - NNE 9.2 mph - N/A   Unknown
7:00 PM 33.8 °F 27.7 °F 29.5 °F 84% 30.16 in - NNE 6.9 mph - N/A   Unknown
8:00 PM 34 °F - 30 °F 79% 30.16 in - NNE 5.8 mph - -  
8:00 PM 33.8 °F 28.6 °F 29.8 °F 85% 30.16 in - NNE 5.8 mph - N/A   Unknown
9:00 PM 33.6 °F 26.8 °F 29.8 °F 86% 30.16 in - NE 8.1 mph - N/A   Unknown
10:00 PM 33.4 °F 29.1 °F 29.3 °F 85% 30.17 in - NE 4.6 mph - N/A   Unknown
11:00 PM 34.3 °F 29.2 °F 27.9 °F 77% 30.15 in - NE 5.8 mph - N/A   Unknown